This demonstration page uses our WeatherBlox Daily Observations layout. Learn more.

Left ArrowRight Arrow

41.86663, -103.66717

Hourly Observations for January 6, 2021

Temp ( °F °C ) Dew Point ( °F °C ) Humidity (%) Winds ( mph kmh ) Pressure ( in mb ) Visibility ( mi km ) Precip ( " mm )
12:53 am 00:53 Clear 30 -1.1 21 -6.1 69 69 NW 10 17 30.18 1022 10 16 0.00 0.00
1:53 am 01:53 Clear 29 -1.7 21 -6.1 72 72 WNW 10 17 30.19 1023 10 16 0.00 0.00
2:53 am 02:53 Clear 28 -2.2 20 -6.7 72 72 WNW 14 22 30.22 1023 10 16 0.00 0.00
3:53 am 03:53 Clear 26 -3.3 19 -7.2 75 75 WNW 12 19 30.24 1024 10 16 0.00 0.00
4:53 am 04:53 Clear 26 -3.3 18 -7.8 71 71 W 13 20 30.24 1024 10 16 0.00 0.00
5:53 am 05:53 Clear 24 -4.4 17 -8.3 75 75 WNW 8 13 30.26 1025 10 16 0.00 0.00
6:53 am 06:53 Clear 24 -4.4 17 -8.3 75 75 NW 8 13 30.28 1025 10 16 0.00 0.00
7:53 am 07:53 Sunny 24 -4.4 16 -8.9 71 71 NW 7 11 30.28 1025 10 16 0.00 0.00
8:53 am 08:53 Sunny 29 -1.7 17 -8.3 61 61 WNW 9 15 30.27 1025 10 16 0.00 0.00
9:53 am 09:53 Sunny 32 0 18 -7.8 56 56 WNW 13 20 30.28 1025 10 16 0.00 0.00
10:53 am 10:53 Sunny 36 2.2 19 -7.2 50 50 WNW 15 24 30.25 1025 10 16 0.00 0.00
11:53 am 11:53 Sunny 40 4.4 19 -7.2 43 43 WNW 14 22 30.21 1023 10 16 0.00 0.00
12:53 pm 12:53 Sunny 42 5.6 19 -7.2 40 40 WNW 12 19 30.18 1022 10 16 0.00 0.00
1:53 pm 13:53 Sunny 43 6.1 17 -8.3 35 35 WNW 13 20 30.18 1022 10 16 0.00 0.00
2:53 pm 14:53 Sunny 43 6.1 16 -8.9 34 34 NW 12 19 30.18 1022 10 16 0.00 0.00
3:53 pm 15:53 Sunny 41 5 17 -8.3 38 38 NW 6 9 30.19 1023 10 16 0.00 0.00
4:53 pm 16:53 Clear 33 0.6 18 -7.8 54 54 NNW 7 11 30.22 1023 10 16 0.00 0.00
5:53 pm 17:53 Clear 29 -1.7 17 -8.3 61 61 NNW 7 11 30.25 1024 10 16 0.00 0.00
6:53 pm 18:53 Clear 27 -2.8 18 -7.8 69 69 Calm 30.26 1025 10 16 0.00 0.00
7:53 pm 19:53 Clear 22 -5.6 16 -8.9 78 78 NNW 6 9 30.28 1026 10 16 0.00 0.00
8:53 pm 20:53 Clear 22 -5.6 16 -8.9 78 78 NNW 8 13 30.27 1025 10 16 0.00 0.00
9:53 pm 21:53 Clear 22 -5.6 15 -9.4 75 75 Calm 30.26 1025 10 16 0.00 0.00
10:53 pm 22:53 Clear 19 -7.2 12 -11.1 74 74 Calm 30.24 1024 10 16 0.00 0.00
11:53 pm 23:53 Clear 20 -6.7 14 -10 78 78 Calm 30.22 1023 10 16 0.00 0.00

Powered by AerisWeather